Home   Weather   Tábor   Past weeks

Flag for Czech Republic Past Weather in Tábor, Czech Republic — Yesterday and Last 2 Weeks

Now
69 °F

Scattered clouds.


Feels Like: 69 °F
Forecast: 50 / 75 °F
Wind: 3 mph from West

Location: Kocelovice

Current Time: Sep 30, 2016 at 6:57:22 PM

Latest Report: Sep 30, 2016 at 6:00 PM


Visibility: 47 mi

Pressure: 29.94 "Hg

Humidity: 50%

Dew Point: 50 °F

Location of TáborLocation

Past Weather in Tábor — Graph

°F

Tábor Temperature Yesterday

Maximum temperature yesterday: 73 °F (at 4:00 PM)
Minimum temperature yesterday: 56 °F (at 6:00 AM)
Average temperature yesterday: 63 °F

High & Low Weather Summary for the Past Weeks

 TemperatureHumidityPressure
High78 °F (Sep 15, 5:00 PM)100% (Sep 16, 7:00 AM)30.41 "Hg (Sep 16, 7:00 AM)
Low38 °F (Sep 21, 5:00 AM)39% (Sep 30, 3:00 PM)29.74 "Hg (Sep 17, 2:00 PM)
Average56 °F80%30.11 "Hg
* Reported Sep 15 5:00 PM — Sep 30 5:00 PM, Tábor, Weather by CustomWeather, © 2016

Note: Actual official high and low records may vary slightly from our data, if they occured in-between our weather recording intervals... More about our weather records

Advertising

Tábor Weather History for the Previous 24 Hours

Scroll right to see more
 ConditionsComfort  
Time TempWeatherWind HumidityBarometerVisibility
5:00 PM
Fri, Sep 30
71 °FPartly sunny.5 mph48%29.93 "Hg47 mi
4:00 PM73 °FPartly sunny.6 mph42%29.93 "Hg47 mi
3:00 PM73 °FPartly sunny.7 mph39%29.93 "Hg47 mi
2:00 PM71 °FPartly sunny.6 mph45%29.96 "Hg47 mi
1:00 PM73 °FPartly sunny.5 mph46%29.96 "Hg43 mi
8:00 AM56 °FPassing clouds.1 mph80%30.04 "Hg40 mi
6:00 AM59 °FCool.3 mph70%30.01 "Hg12 mi
5:00 AM59 °FCool.3 mph72%30.01 "Hg12 mi
4:00 AM60 °FCool.3 mph69%30.01 "Hg12 mi
3:00 AM60 °FCool.3 mph69%30.01 "Hg12 mi
2:00 AM61 °FCool.3 mph67%30.01 "Hg12 mi
1:00 AM63 °FMild.5 mph64%30.01 "Hg12 mi
12:00 AM60 °FCool.5 mph71%30.03 "Hg12 mi
11:00 PM
Thu, Sep 29
61 °FCool.2 mph68%30.03 "Hg12 mi
10:00 PM60 °FPassing clouds.2 mph72%30.04 "Hg25 mi
9:00 PM63 °FPassing clouds.3 mph65%30.03 "Hg25 mi
8:00 PM64 °FPassing clouds.3 mph61%30.03 "Hg28 mi
7:00 PM66 °FPassing clouds.3 mph57%30.03 "Hg34 mi
6:00 PM70 °FPassing clouds.3 mph50%30.02 "Hg43 mi
Weather by CustomWeather, © 2016

See weather overviewHow to use our weather pages